Volver al catálogo

STARLINK-31990

ActivoComunicacionesVLEO
NORAD 60024·PAYLOAD·🇺🇸 United States

Lanzado Jun 8, 2024 desde Cape Canaveral Space Force Station

Loading…

Próximos Pases (próximas 24 horas)

TLE

ActualizadoSource: CelesTrak SupGP

Época: Sep 14, 2026, 20:34 UTC

1 60024C 24111J   26257.85743056  .00033053  00000+0  97694-3 0  2579
2 60024  53.1568 275.9013 0001150  88.4692 173.2066 15.34361734    16

Sigue STARLINK-31990 en tiempo real con AllMySat

Download on the App Store